Regional Weather Roundup
Issued by NWS Jackson, KY

Home | Current Version | Previous Version | Graphics & Text | Print | Product List | Glossary On
Versions: 1 2 3 4 5 6 7 8 9 10 11 12 13 14 15 16 17 18 19 20 21 22 23 24 25 26 27 28 29 30 31 32 33 34 35 36 37 38 39 40 41 42 43 44 45 46 47 48 49 50
000
ASUS43 KJKL 190710
RWRJKL

EAST KENTUCKY HOURLY WEATHER ROUNDUP
NATIONAL WEATHER SERVICE JACKSON KY
300 AM EDT THU APR 19 2018

NOTE: "FAIR" INDICATES FEW OR NO CLOUDS BELOW 12,000 FEET WITH
NO SIGNIFICANT WEATHER AND/OR OBSTRUCTIONS TO VISIBILITY.

* THESE REPORTS ARE NOT UNDER NWS QUALITY CONTROL AND MAY NOT
  REPORT WEATHER SUCH AS PRECIPITATION AND FOG.

KYZ079-080-083-085-087-088-110-112-115-119-120-190800
...EASTERN KENTUCKY...

CITY           SKY/WX    TMP DP  RH WIND       PRES   REMARKS
JACKSON        LGT RAIN  49  44  83 VRB7G20   29.86R
LONDON         CLOUDY    49  32  52 NW8G24    29.91R
SOMERSET*      CLOUDY    48  36  61 NW9       29.95S
MONTICELLO*    MOCLDY    48  39  71 NW8       29.96R
WILLIAMSBURG*  CLOUDY    48  41  76 NW9G18    29.92R
MIDDLESBORO*   CLOUDY    55  49  80 NW14G21   29.87R
HARLAN APT*    CLOUDY    53  48  82 NW14G22   29.86R
PIKE CO APT*   RAIN      52  52 100 NW13G20   29.81R
BIG SANDY APT* RAIN      51  49  91 NW13G26   29.82R
MOREHEAD APT*  CLOUDY    46  36  66 NW9G15    29.88R
ASHLAND*       CLOUDY    51  43  74 W7        29.82R
$$

KYZ035-036-041-042-044-050-067-078-099-190800
...CENTRAL KENTUCKY...

CITY           SKY/WX    TMP DP  RH WIND       PRES   REMARKS
MT STERLING*   CLOUDY    46  36  66 NW14G25   29.90R
FLEMING/MASON* CLOUDY    45  33  63 NW23G30   29.88S
DANVILLE*      CLOUDY    45  34  65 NW17      29.95R
LEXINGTON      CLOUDY    45  33  63 W15G26    29.92R
FRANKFORT      CLOUDY    44  28  53 W15G33    29.93R
LOUISVILLE     CLOUDY    43  29  57 W22G33    29.98R
GLASGOW*       MOCLDY    47  34  60 W14G21    29.98S
BOWLING GREEN  CLOUDY    48  34  58 NW12G23   30.01R
$$

KYZ091>093-OHZ055-061-077-WVZ005-015-034-035-042-190800
...SOUTHERN OHIO/WEST VIRGINIA...

CITY           SKY/WX    TMP DP  RH WIND       PRES   REMARKS
COVINGTON      CLOUDY    41  30  65 NW21G28   29.90R
COLUMBUS       CLOUDY    38  35  89 W7        29.79R WCI  33
DAYTON         CLOUDY    39  33  79 W17       29.86R WCI  30
WILMINGTON     CLOUDY    41  33  73 W15G31    29.84S
HUNTINGTON     CLOUDY    52  39  61 NW9G22    29.80R
CHARLESTON     CLOUDY    53  49  86 NW9G22    29.77R
PINEVILLE*     RAIN      59  50  72 MISG        N/A
BECKLEY        CLOUDY    52  49  89 NW17G24   29.73F
BLUEFIELD      CLOUDY    60  45  57 W12       29.72F
LOGAN CO APT*  LGT RAIN  54  48  82 NW9G15    29.77R
$$

VAZ002-007-008-TNZ017-027-036-066-071-190800
...SOUTHWEST VIRGINIA/EAST TENNESSEE...

CITY           SKY/WX    TMP DP  RH WIND       PRES   REMARKS
WISE*          LGT RAIN  55  54  94 NW15G24   29.81R
JONESVILLE*    CLOUDY    57  54  88 W6        29.85R
ABINGDON*      CLOUDY    65  55  69 W18G29    29.76F
BRISTOL        CLOUDY    66  56  70 W15       29.76F
SEVIERVILLE*   CLOUDY    70  55  60 W17G28    29.80S
KNOXVILLE      CLOUDY    67  55  65 W14G25    29.83R
LAFOLLETTE*    CLOUDY    57  48  72 VRB7G16   29.91R
OAK RIDGE      CLOUDY    64  55  72 W7        29.85S
CROSSVILLE     CLOUDY    52  42  69 NW16G26   29.93R
NASHVILLE        N/A     50  37  61 N8        30.02R
$$

...KEY TO REMARKS...
VSB - VISIBILITY IN MILES
WCI - WIND CHILL INDEX
HX  - HEAT INDEX

$$



USA.gov is the U.S. government's official web portal to all federal, state and local government web resources and services.